Regional Weather Roundup
Issued by NWS Charleston, SC

Current Version | Previous Version | Graphics & Text | Print | Product List | Glossary On
Versions: 1 2 3 4 5 6 7 8 9 10 11 12 13 14 15 16 17 18 19 20 21 22 23 24 25 26 27 28 29 30 31 32 33 34 35 36 37 38 39 40 41 42 43 44 45 46 47 48 49 50
882 ASUS42 KCHS 090327 RWRCHS REGIONAL WEATHER ROUNDUP NATIONAL WEATHER SERVICE CHARLESTON SC 1000 PM EST MON FEB 08 2016 NOTE: "FAIR" INDICATES FEW OR NO CLOUDS BELOW 12,000 FEET WITH NO SIGNIFICANT WEATHER AND/OR OBSTRUCTIONS TO VISIBILITY. NOT ALL STATIONS ARE QUALITY CONTROLLED BY THE NATIONAL WEATHER SERVICE. USE DATA WITH CAUTION...ESPECIALLY DEWPOINT OBSERVATIONS. NOTICE: OBSERVATIONS FOR THE SAVANNAH-HILTON HEAD INTERNATIONAL AIRPORT /KSAV/ HAVE BEEN TEMPORARILY REMOVED DUE TO AN ERRONEOUS TEMPERATURE SENSOR. THE OBSERVATION WILL BE REINTRODUCED ONCE REPAIRS ARE COMPLETE. SCZ027-030-031-034>040-042>050-090400- ...SOUTHEAST SOUTH CAROLINA... CITY SKY/WX TMP DP RH WIND PRES REMARKS N CHARLESTON CLOUDY 45 42 89 S5 29.72F WATERFRONT PRK N/A 46 43 89 CALM 29.57F MOUNT PLEASANT MOCLDY 45 43 93 CALM 29.72F JOHNS ISLAND MOCLDY 45 45 100 CALM 29.72F PINOPOLIS N/A 46 43 87 SW6 29.64R MONCKS CORNER CLOUDY 43 37 81 SW3 29.71F SUMMERVILLE CLOUDY 45 45 100 CALM 29.73R BEAUFORT MCAS MOCLDY 45 42 89 SW8 29.76R BEAUFORT ARPT MOCLDY 46 43 87 W7 29.75R HILTON HEAD IS CLOUDY 46 43 87 SW6 29.77R WALTERBORO MOCLDY 45 43 93 W6 29.75R ALLENDALE FAIR 43 39 87 CALM 29.76R ...SOUTHERN MIDLANDS AND PEE DEE... CITY SKY/WX TMP DP RH WIND PRES REMARKS GEORGETOWN NOT AVBL KINGSTREE NOT AVBL ORANGEBURG PTCLDY 42 40 92 SW7 29.72S BARNWELL FAIR 43 37 81 SW6 29.76R AIKEN FAIR 41 23 48 W8 29.76S MANNING FAIR 43 41 93 SW3 29.70F COLUMBIA CLEAR 39 32 76 W5 29.71S WCI 36 SUMTER PTCLDY 38 36 90 SW3 29.68F FLORENCE MOCLDY 42 41 96 SW3 29.68F MYRTLE BEACH CLOUDY 46 39 76 CALM 29.72F N MYRTLE BEACH CLOUDY 47 42 83 SW3 29.69F $$ GAZ063-065-086>088-099>101-113>116-118-119-134>141-150-090400- ...SOUTHEAST GEORGIA... CITY SKY/WX TMP DP RH WIND PRES REMARKS SAVANNAH ARPT MOCLDY 45 42 89 SW6 29.78R HUNTER AAF MOCLDY 46 45 99 W7 29.75F FORT STEWART MOCLDY 45 43 93 NW5 29.76S STATESBORO CLEAR 47 32 57 W9 29.79R SYLVANIA CLEAR 43 40 89 W6 29.79R CLAXTON FAIR 41 41 100 SW3 29.79R ...CSRA...CENTRAL AND FAR SOUTHEAST GEORGIA... CITY SKY/WX TMP DP RH WIND PRES REMARKS THOMSON CLEAR 45 26 47 W9 29.81S AUGUSTA-BUSH CLEAR 42 28 57 W6 29.76R AUGUSTA-DANIEL CLEAR 46 22 38 W10 29.75S SWAINSBORO FAIR 37 32 81 W3 29.80R VIDALIA CLEAR 41 34 75 CALM 29.80R EASTMAN FAIR 45 26 48 CALM 29.85R HAZLEHURST FAIR 42 39 89 W3 29.81R ALMA PTCLDY 46 39 76 NW9 29.81R WAYCROSS CLOUDY 49 45 84 W7 29.82S JESUP CLOUDY 46 45 93 SW3 29.82R BAXLEY FAIR 45 39 81 W7 29.81R BRUNSWICK DRIZZLE 46 45 93 W3 29.82R SAINT SIMONS CLOUDY 47 46 97 W3 29.80R $$ SCZ027-028-034-036>038-045-046-048>050-GAZ119-141-090400- ...LAKE AND SUPPLEMENTAL COASTAL OBSERVATIONS... STATION/POSITION TIME TEMP WIND PRES WAVE SWELL AIR SEA DIR/SP/G HT/PER HT/PER/DIR (UTC) (F) (DEG/KT/KT) (MB) (FT/S) (FT/S/D) WINYAH BAY 0200 46 250/ 5 1006.0F LAKE MURRAY 0200 46 250/ 8/ 12 1005.4S ACE BASIN NERRS 0200 45 CALM 1007.0 FORT PULASKI 0300 47 53 270/ 8/ 10 1007.9R SAPELO ISLAND 0300 48 250/ 7 1009.0R $$ ANZ835-935-AMZ111-154-330-350-352-354-370-450-454-472-090400- ...C-MAN AND BUOY OBSERVATIONS... STATION/POSITION TIME TEMP WIND PRES WAVE SWELL AIR SEA DIR/SP/G HT/PER HT/PER/DIR (UTC) (F) (DEG/KT/KT) (MB) (FT/S) (FT/S/D) BUOY 41004 0250 53 65 280/ 25/ 31 1005.8S 8/ 7 3/16 BUOY 41008 0250 50 55 290/ 10/ 12 1008.7R 4/ 6 2/190/ 6 FOLLY BEACH CMAN 0300 45 270/ 2/ 3 1006.8F CAPERS NEARSHORE 0208 49 290/ 16/ 21 1006.7F FRIPP NEARSHORE 0200 49 310/ 17/ 21 1006.9F STATION/POSITION TIME TEMP WIND PRES WAVE SWELL AIR SEA DIR/SP/G HT/PER HT/PER/DIR (UTC) (F) (DEG/KT/KT) (MB) (FT/S) (FT/S/D) 5E ST. MARYS GA 0221 55 N/A 4/18 2/100/18 FRYING PAN BUOY 0300 52 62 290/ 23/ 29 1005.0F BUOY 41025 0250 54 74 330/ 10/ 14 1004.3F 10/16 10/ 90/16 CAPE LOOKOUT NC NOT AVBL BUOY 41002 0250 64 69 250/ 25/ 33 N/A 11/11 8/ 10/11 BUOY 41010 0220 68 73 1010.8F ST AUGUSTINE FL 0300 57 57 290/ 7/ 9 1010.2R $$

USA.gov is the U.S. government's official web portal to all federal, state and local government web resources and services.